Location: Granada Hills
(34.2650°N, 118.5220°W)
Time: 22:19:33
(UTC-07:00)

deb Kosmos-1763 - Visible Passes

Search period start: 27 April 2015 00:00
Search period end: 07 May 2015 00:00
Orbit: 537 x 555 km, 74.0° (Epoch: 27 April)

Date Brightness Start Highest point End Pass type
(mag) Time Alt. Az. Time Alt. Az. Time Alt. Az.
27 Apr 5.4 22:00:29 10° NNW 22:03:14 42° NNW 22:03:14 42° NNW visible
28 Apr 5.1 21:54:48 10° NNW 21:58:02 50° NW 21:58:02 50° NW visible
29 Apr 5.0 21:49:07 10° NNW 21:52:52 50° W 21:52:52 50° W visible
30 Apr 6.4 20:08:11 10° NE 20:09:38 12° ENE 20:11:17 10° E visible
30 Apr 5.2 21:43:27 10° NNW 21:47:15 41° WSW 21:47:43 39° WSW visible
01 May 5.7 21:37:47 10° NW 21:41:27 34° WSW 21:42:38 28° SW visible
02 May 6.0 21:32:08 10° NW 21:35:38 28° WSW 21:37:34 19° SW visible
03 May 6.3 21:26:30 10° NW 21:29:47 24° W 21:32:33 12° SSW visible
04 May 6.6 21:20:54 10° NW 21:23:55 20° W 21:26:49 10° SSW visible
05 May 6.9 21:15:20 10° WNW 21:18:01 17° W 21:20:34 10° SW visible
06 May 7.1 21:09:52 10° WNW 21:12:07 14° W 21:14:11 10° SW visible
